| time (UTC) | temp C | wind direction | speed KPH | gust KPH | rain 1hr cm | rain 24hr cm | rain mn cm | humidity % | barometer mb |
| 20260510190609 | 17 | 240 | 0.0 | 19.3 | 0.00 | 0.00 | 0.00 | 42 | 1015.8 |
| 20260510190106 | 17 | 309 | 1.6 | 6.4 | 0.00 | 0.00 | 0.00 | 43 | 1015.7 |
| 20260510185606 | 17 | 11 | 0.0 | 9.7 | 0.00 | 0.00 | 0.00 | 38 | 1015.7 |
| 20260510185106 | 17 | 13 | 11.3 | 16.1 | 0.00 | 0.00 | 0.00 | 41 | 1015.7 |
| 20260510184606 | 17 | 19 | 4.8 | 17.7 | 0.00 | 0.00 | 0.00 | 38 | 1015.8 |
| 20260510184106 | 17 | 315 | 9.7 | 14.5 | 0.00 | 0.00 | 0.00 | 39 | 1015.7 |
| 20260510183606 | 17 | 340 | 1.6 | 12.9 | 0.00 | 0.00 | 0.00 | 41 | 1015.6 |
| 20260510183106 | 17 | 41 | 3.2 | 4.8 | 0.00 | 0.00 | 0.00 | 41 | 1015.7 |
| 20260510182606 | 17 | 267 | 0.0 | 6.4 | 0.00 | 0.00 | 0.00 | 41 | 1015.9 |
| 20260510182106 | 17 | 328 | 4.8 | 16.1 | 0.00 | 0.00 | 0.00 | 42 | 1015.9 |
| 20260510181606 | 17 | 350 | 0.0 | 19.3 | 0.00 | 0.00 | 0.00 | 46 | 1015.8 |
| 20260510181106 | 17 | 350 | 11.3 | 17.7 | 0.00 | 0.00 | 0.00 | 43 | 1015.9 |
| 20260510180606 | 17 | 334 | 12.9 | 16.1 | 0.00 | 0.00 | 0.00 | 41 | 1015.8 |
| 20260510180106 | 17 | 303 | 8.0 | 9.7 | 0.00 | 0.00 | 0.00 | 39 | 1015.6 |
| 20260510175606 | 17 | 293 | 3.2 | 11.3 | 0.00 | 0.00 | 0.00 | 44 | 1015.4 |
| 20260510175106 | 17 | 286 | 8.0 | 11.3 | 0.00 | 0.00 | 0.00 | 42 | 1015.3 |
| 20260510174609 | 17 | 337 | 8.0 | 20.9 | 0.00 | 0.00 | 0.00 | 44 | 1015.3 |
| 20260510174106 | 16 | 323 | 1.6 | 19.3 | 0.00 | 0.00 | 0.00 | 45 | 1015.5 |
| 20260510173606 | 16 | 323 | 4.8 | 16.1 | 0.00 | 0.00 | 0.00 | 42 | 1015.6 |
| 20260510173109 | 16 | 15 | 11.3 | 16.1 | 0.00 | 0.00 | 0.00 | 42 | 1015.5 |
| 20260510172609 | 17 | 57 | 0.0 | 12.9 | 0.00 | 0.00 | 0.00 | 46 | 1015.5 |
| 20260510172106 | 16 | 317 | 6.4 | 11.3 | 0.00 | 0.00 | 0.00 | 44 | 1015.5 |
| 20260510171606 | 16 | 313 | 6.4 | 9.7 | 0.00 | 0.00 | 0.00 | 45 | 1015.5 |
| 20260510171106 | 16 | 86 | 8.0 | 27.4 | 0.00 | 0.00 | 0.00 | 41 | 1015.6 |
| 20260510170606 | 16 | 342 | 19.3 | 27.4 | 0.00 | 0.00 | 0.00 | 41 | 1015.5 |
| 20260510170106 | 16 | 304 | 1.6 | 14.5 | 0.00 | 0.00 | 0.00 | 42 | 1015.6 |
| 20260510165606 | 16 | 350 | 9.7 | 11.3 | 0.00 | 0.00 | 0.00 | 43 | 1015.5 |
| 20260510165106 | 16 | 342 | 0.0 | 9.7 | 0.00 | 0.00 | 0.00 | 40 | 1015.7 |
| 20260510164606 | 16 | 18 | 6.4 | 19.3 | 0.00 | 0.00 | 0.00 | 42 | 1015.7 |
| 20260510164109 | 16 | 291 | 4.8 | 16.1 | 0.00 | 0.00 | 0.00 | 40 | 1015.7 |
| 20260510163606 | 16 | 22 | 11.3 | 24.1 | 0.00 | 0.00 | 0.00 | 37 | 1015.6 |
| 20260510163106 | 16 | 5 | 4.8 | 24.1 | 0.00 | 0.00 | 0.00 | 41 | 1015.7 |
| 20260510162606 | 16 | 270 | 1.6 | 14.5 | 0.00 | 0.00 | 0.00 | 43 | 1015.6 |
| 20260510162111 | 16 | 9 | 11.3 | 20.9 | 0.00 | 0.00 | 0.00 | 39 | 1015.7 |
| 20260510161606 | 16 | 337 | 4.8 | 11.3 | 0.00 | 0.00 | 0.00 | 38 | 1015.7 |
| 20260510161106 | 16 | 331 | 8.0 | 17.7 | 0.00 | 0.00 | 0.00 | 39 | 1015.6 |
| 20260510160609 | 16 | 5 | 1.6 | 12.9 | 0.00 | 0.00 | 0.00 | 45 | 1015.6 |
| 20260510160106 | 16 | 304 | 0.0 | 14.5 | 0.00 | 0.00 | 0.00 | 36 | 1015.4 |
| 20260510155606 | 16 | 308 | 0.0 | 11.3 | 0.00 | 0.00 | 0.00 | 47 | 1015.4 |
| 20260510155106 | 16 | 344 | 4.8 | 14.5 | 0.00 | 0.00 | 0.00 | 47 | 1015.4 |
| 20260510154609 | 15 | 92 | 0.0 | 8.0 | 0.00 | 0.00 | 0.00 | 53 | 1015.4 |
| 20260510154106 | 15 | 70 | 0.0 | 8.0 | 0.00 | 0.00 | 0.00 | 49 | 1015.3 |
| 20260510153606 | 15 | 100 | 1.6 | 16.1 | 0.00 | 0.00 | 0.00 | 52 | 1015.2 |
| 20260510153106 | 15 | 9 | 3.2 | 11.3 | 0.00 | 0.00 | 0.00 | 50 | 1015.1 |
| 20260510152609 | 15 | 355 | 6.4 | 8.0 | 0.00 | 0.00 | 0.00 | 53 | 1015.1 |
| 20260510152106 | 15 | 342 | 1.6 | 9.7 | 0.00 | 0.00 | 0.00 | 52 | 1015.0 |
| 20260510151606 | 14 | 94 | 4.8 | 9.7 | 0.00 | 0.00 | 0.00 | 53 | 1015.0 |
| 20260510151106 | 14 | 29 | 8.0 | 14.5 | 0.00 | 0.00 | 0.00 | 51 | 1015.0 |
| 20260510150606 | 14 | 341 | 0.0 | 9.7 | 0.00 | 0.00 | 0.00 | 52 | 1014.9 |
| 20260510150106 | 13 | 306 | 3.2 | 12.9 | 0.00 | 0.00 | 0.00 | 54 | 1014.9 |
| 20260510145606 | 13 | 334 | 9.7 | 16.1 | 0.00 | 0.00 | 0.00 | 54 | 1014.9 |
| 20260510145109 | 13 | 81 | 3.2 | 12.9 | 0.00 | 0.00 | 0.00 | 54 | 1014.9 |
| 20260510144606 | 13 | 32 | 11.3 | 11.3 | 0.00 | 0.00 | 0.00 | 54 | 1014.7 |
| 20260510144106 | 13 | 64 | 4.8 | 6.4 | 0.00 | 0.00 | 0.00 | 55 | 1014.6 |
| 20260510143606 | 13 | 65 | 3.2 | 11.3 | 0.00 | 0.00 | 0.00 | 53 | 1014.5 |
| 20260510143106 | 13 | 76 | 4.8 | 14.5 | 0.00 | 0.00 | 0.00 | 53 | 1014.4 |
| 20260510142606 | 13 | 318 | 8.0 | 14.5 | 0.00 | 0.00 | 0.00 | 55 | 1014.3 |
| 20260510142106 | 13 | 23 | 6.4 | 9.7 | 0.00 | 0.00 | 0.00 | 55 | 1014.4 |
| 20260510141606 | 13 | 348 | 6.4 | 17.7 | 0.00 | 0.00 | 0.00 | 54 | 1014.3 |
| 20260510141106 | 13 | 355 | 8.0 | 16.1 | 0.00 | 0.00 | 0.00 | 53 | 1014.4 |
| 20260510140609 | 13 | 321 | 0.0 | 9.7 | 0.00 | 0.00 | 0.00 | 56 | 1014.3 |
| 20260510140109 | 12 | 38 | 0.0 | 14.5 | 0.00 | 0.00 | 0.00 | 56 | 1014.4 |
| 20260510135606 | 12 | 118 | 4.8 | 11.3 | 0.00 | 0.00 | 0.00 | 58 | 1014.4 |
| 20260510135109 | 12 | 82 | 8.0 | 11.3 | 0.00 | 0.00 | 0.00 | 58 | 1014.3 |
| 20260510134606 | 12 | 22 | 4.8 | 6.4 | 0.00 | 0.00 | 0.00 | 57 | 1014.3 |
| 20260510134106 | 12 | 355 | 0.0 | 14.5 | 0.00 | 0.00 | 0.00 | 57 | 1014.2 |
| 20260510133606 | 12 | 90 | 0.0 | 11.3 | 0.00 | 0.00 | 0.00 | 57 | 1014.2 |
| 20260510133109 | 12 | 0 | 3.2 | 16.1 | 0.00 | 0.00 | 0.00 | 58 | 1014.2 |
| 20260510132609 | 12 | 26 | 1.6 | 9.7 | 0.00 | 0.00 | 0.00 | 59 | 1014.1 |
| 20260510132109 | 11 | 342 | 0.0 | 11.3 | 0.00 | 0.00 | 0.00 | 60 | 1014.1 |
| 20260510131606 | 11 | 342 | 9.7 | 14.5 | 0.00 | 0.00 | 0.00 | 60 | 1014.1 |
| 20260510131106 | 11 | 75 | 0.0 | 9.7 | 0.00 | 0.00 | 0.00 | 60 | 1014.2 |
| 20260510130606 | 11 | 38 | 0.0 | 8.0 | 0.00 | 0.00 | 0.00 | 61 | 1014.1 |
| 20260510130106 | 11 | 46 | 3.2 | 12.9 | 0.00 | 0.00 | 0.00 | 61 | 1013.9 |
| 20260510125606 | 11 | 22 | 0.0 | 3.2 | 0.00 | 0.00 | 0.00 | 64 | 1013.7 |
| 20260510125109 | 11 | 22 | 0.0 | 8.0 | 0.00 | 0.00 | 0.00 | 63 | 1013.7 |
| 20260510124606 | 11 | 29 | 0.0 | 8.0 | 0.00 | 0.03 | 0.00 | 64 | 1013.5 |
| 20260510124106 | 11 | 344 | 1.6 | 11.3 | 0.00 | 0.03 | 0.00 | 64 | 1013.5 |
| 20260510123606 | 11 | 355 | 6.4 | 8.0 | 0.00 | 0.03 | 0.00 | 63 | 1013.6 |
| 20260510123106 | 11 | 5 | 4.8 | 8.0 | 0.00 | 0.03 | 0.00 | 64 | 1013.6 |
| 20260510122606 | 11 | 355 | 0.0 | 8.0 | 0.00 | 0.03 | 0.00 | 64 | 1013.6 |
| 20260510122106 | 11 | 355 | 0.0 | 9.7 | 0.00 | 0.03 | 0.00 | 65 | 1013.5 |
| 20260510121606 | 11 | 346 | 8.0 | 11.3 | 0.00 | 0.03 | 0.00 | 65 | 1013.5 |
| 20260510121109 | 11 | 19 | 3.2 | 8.0 | 0.00 | 0.03 | 0.00 | 68 | 1013.5 |
| 20260510120606 | 11 | 22 | 1.6 | 6.4 | 0.00 | 0.03 | 0.00 | 68 | 1013.4 |
| 20260510120114 | 11 | 26 | 3.2 | 6.4 | 0.00 | 0.03 | 0.00 | 68 | 1013.2 |
| 20260510115606 | 11 | 26 | 0.0 | 1.6 | 0.00 | 0.03 | 0.00 | 69 | 1013.0 |
| 20260510115106 | 11 | 26 | 0.0 | 1.6 | 0.00 | 0.03 | 0.00 | 69 | 1013.0 |
| 20260510114606 | 11 | 26 | 0.0 | 0.0 | 0.00 | 0.03 | 0.00 | 68 | 1013.0 |
| 20260510114106 | 11 | 26 | 0.0 | 1.6 | 0.00 | 0.03 | 0.00 | 67 | 1013.0 |
| 20260510113606 | 11 | 26 | 0.0 | 4.8 | 0.00 | 0.03 | 0.00 | 66 | 1012.9 |
| 20260510113106 | 11 | 26 | 0.0 | 4.8 | 0.00 | 0.03 | 0.00 | 64 | 1012.6 |
| 20260510112606 | 11 | 26 | 3.2 | 6.4 | 0.00 | 0.03 | 0.00 | 64 | 1012.6 |
| 20260510112106 | 11 | 35 | 0.0 | 9.7 | 0.00 | 0.03 | 0.00 | 63 | 1012.6 |
| 20260510111606 | 11 | 24 | 3.2 | 11.3 | 0.00 | 0.03 | 0.00 | 64 | 1012.5 |
| 20260510111107 | 11 | 5 | 3.2 | 11.3 | 0.00 | 0.03 | 0.00 | 64 | 1012.4 |
| 20260510110606 | 11 | 337 | 4.8 | 14.5 | 0.00 | 0.05 | 0.00 | 65 | 1012.3 |
| 20260510110106 | 11 | 9 | 14.5 | 14.5 | 0.00 | 0.05 | 0.00 | 66 | 1012.3 |
| 20260510105606 | 11 | 20 | 1.6 | 11.3 | 0.00 | 0.05 | 0.00 | 67 | 1012.1 |
| 20260510105106 | 12 | 335 | 1.6 | 14.5 | 0.00 | 0.05 | 0.00 | 67 | 1011.8 |
| 20260510104606 | 12 | 355 | 6.4 | 14.5 | 0.00 | 0.08 | 0.00 | 69 | 1011.7 |
| 20260510104106 | 12 | 11 | 9.7 | 16.1 | 0.00 | 0.08 | 0.00 | 69 | 1011.7 |
| 20260510103606 | 12 | 14 | 6.4 | 14.5 | 0.00 | 0.08 | 0.00 | 70 | 1011.6 |
| 20260510103106 | 12 | 11 | 4.8 | 14.5 | 0.00 | 0.10 | 0.00 | 70 | 1011.5 |
| 20260510102606 | 12 | 5 | 6.4 | 11.3 | 0.00 | 0.10 | 0.00 | 70 | 1011.3 |
| 20260510102106 | 12 | 355 | 6.4 | 11.3 | 0.00 | 0.10 | 0.00 | 70 | 1011.1 |
| 20260510101606 | 12 | 344 | 0.0 | 16.1 | 0.00 | 0.10 | 0.00 | 71 | 1011.0 |
| 20260510101106 | 12 | 5 | 14.5 | 16.1 | 0.00 | 0.10 | 0.00 | 73 | 1011.1 |
| 20260510100606 | 12 | 348 | 4.8 | 9.7 | 0.00 | 0.10 | 0.00 | 74 | 1010.9 |
| 20260510100106 | 12 | 350 | 0.0 | 9.7 | 0.00 | 0.13 | 0.00 | 74 | 1010.9 |
| 20260510095606 | 12 | 349 | 0.0 | 9.7 | 0.00 | 0.13 | 0.00 | 74 | 1011.0 |
| 20260510095106 | 12 | 344 | 3.2 | 8.0 | 0.00 | 0.13 | 0.00 | 74 | 1011.0 |
| 20260510094609 | 12 | 335 | 0.0 | 8.0 | 0.00 | 0.13 | 0.00 | 73 | 1010.8 |
| 20260510094111 | 12 | 322 | 3.2 | 6.4 | 0.00 | 0.13 | 0.00 | 73 | 1010.6 |
| 20260510093606 | 12 | 320 | 0.0 | 6.4 | 0.00 | 0.13 | 0.00 | 73 | 1010.7 |
| 20260510093106 | 12 | 321 | 0.0 | 3.2 | 0.00 | 0.13 | 0.00 | 73 | 1010.5 |
| 20260510092606 | 13 | 321 | 0.0 | 8.0 | 0.00 | 0.15 | 0.00 | 73 | 1010.4 |
| 20260510092106 | 13 | 328 | 0.0 | 8.0 | 0.00 | 0.15 | 0.00 | 72 | 1010.1 |
| 20260510091606 | 13 | 325 | 3.2 | 11.3 | 0.00 | 0.18 | 0.00 | 72 | 1010.0 |
| 20260510091106 | 13 | 281 | 0.0 | 11.3 | 0.00 | 0.18 | 0.00 | 72 | 1010.1 |
| 20260510090607 | 13 | 332 | 4.8 | 11.3 | 0.00 | 0.18 | 0.00 | 72 | 1010.0 |
| 20260510090106 | 13 | 0 | 0.0 | 8.0 | 0.00 | 0.20 | 0.00 | 72 | 1009.8 |
| 20260510085609 | 13 | 297 | 0.0 | 8.0 | 0.00 | 0.20 | 0.00 | 73 | 1009.9 |
| 20260510085106 | 14 | 299 | 0.0 | 8.0 | 0.00 | 0.23 | 0.00 | 73 | 1009.7 |
| 20260510084606 | 14 | 308 | 1.6 | 6.4 | 0.00 | 0.23 | 0.00 | 73 | 1009.4 |
| 20260510084106 | 14 | 308 | 0.0 | 3.2 | 0.00 | 0.25 | 0.00 | 72 | 1009.2 |
| 20260510083606 | 14 | 308 | 4.8 | 9.7 | 0.00 | 0.25 | 0.00 | 71 | 1009.4 |
| 20260510083106 | 14 | 311 | 3.2 | 11.3 | 0.00 | 0.25 | 0.00 | 70 | 1009.2 |
| 20260510082606 | 14 | 300 | 3.2 | 12.9 | 0.00 | 0.28 | 0.00 | 70 | 1009.1 |
| 20260510082106 | 14 | 276 | 0.0 | 8.0 | 0.00 | 0.28 | 0.00 | 70 | 1009.1 |
| 20260510081606 | 14 | 306 | 1.6 | 8.0 | 0.00 | 0.28 | 0.00 | 69 | 1009.0 |
| 20260510081106 | 14 | 263 | 0.0 | 4.8 | 0.00 | 0.30 | 0.00 | 69 | 1009.1 |
| 20260510080606 | 14 | 263 | 3.2 | 6.4 | 0.00 | 0.33 | 0.00 | 69 | 1009.1 |
| 20260510080106 | 14 | 262 | 0.0 | 3.2 | 0.00 | 0.36 | 0.00 | 68 | 1009.0 |
| 20260510075611 | 14 | 262 | 3.2 | 8.0 | 0.00 | 0.36 | 0.00 | 68 | 1009.1 |
| 20260510075106 | 14 | 262 | 3.2 | 14.5 | 0.00 | 0.41 | 0.00 | 69 | 1009.2 |
| 20260510074606 | 14 | 248 | 1.6 | 3.2 | 0.00 | 0.43 | 0.00 | 69 | 1009.3 |
| 20260510074106 | 15 | 248 | 0.0 | 6.4 | 0.00 | 0.46 | 0.00 | 69 | 1009.4 |
| 20260510073606 | 15 | 248 | 3.2 | 9.7 | 0.00 | 0.48 | 0.00 | 68 | 1009.3 |
| 20260510073106 | 15 | 247 | 1.6 | 8.0 | 0.00 | 0.51 | 0.00 | 68 | 1009.1 |
| 20260510072606 | 15 | 247 | 8.0 | 8.0 | 0.00 | 0.53 | 0.00 | 68 | 1009.0 |
| 20260510072106 | 15 | 248 | 0.0 | 4.8 | 0.00 | 0.53 | 0.00 | 68 | 1008.9 |
| 20260510071606 | 15 | 248 | 0.0 | 9.7 | 0.00 | 0.53 | 0.00 | 68 | 1009.1 |
| 20260510071106 | 15 | 262 | 0.0 | 8.0 | 0.00 | 0.53 | 0.00 | 67 | 1009.2 |
| 20260510070606 | 15 | 262 | 6.4 | 9.7 | 0.00 | 0.56 | 0.00 | 67 | 1009.2 |
| 20260510070106 | 15 | 263 | 1.6 | 11.3 | 0.00 | 0.56 | 0.00 | 66 | 1009.2 |
| 20260510065609 | 15 | 234 | 1.6 | 4.8 | 0.00 | 0.58 | 0.00 | 66 | 1009.2 |
| 20260510065106 | 16 | 234 | 0.0 | 4.8 | 0.00 | 0.58 | 0.00 | 65 | 1009.1 |
| 20260510064611 | 16 | 234 | 0.0 | 11.3 | 0.00 | 0.58 | 0.00 | 64 | 1009.0 |
| 20260510064106 | 16 | 240 | 3.2 | 11.3 | 0.00 | 0.58 | 0.00 | 64 | 1009.1 |
| 20260510063606 | 16 | 239 | 6.4 | 12.9 | 0.00 | 0.61 | 0.00 | 64 | 1009.2 |
| 20260510063106 | 16 | 252 | 3.2 | 14.5 | 0.00 | 0.61 | 0.00 | 65 | 1009.2 |
| 20260510062606 | 16 | 230 | 8.0 | 16.1 | 0.00 | 0.61 | 0.00 | 66 | 1009.3 |
| 20260510062109 | 15 | 263 | 14.5 | 20.9 | 0.00 | 0.64 | 0.00 | 68 | 1009.5 |
| 20260510061606 | 15 | 232 | 20.9 | 22.5 | 0.00 | 0.64 | 0.00 | 71 | 1009.6 |
| 20260510061106 | 15 | 243 | 6.4 | 16.1 | 0.00 | 0.64 | 0.00 | 72 | 1009.6 |
| 20260510060609 | 15 | 244 | 8.0 | 17.7 | 0.00 | 0.64 | 0.00 | 72 | 1009.7 |
| 20260510060106 | 15 | 242 | 9.7 | 17.7 | 0.00 | 0.64 | 0.00 | 72 | 1009.7 |
| 20260510055606 | 15 | 223 | 14.5 | 17.7 | 0.00 | 0.64 | 0.00 | 73 | 1009.6 |
| 20260510055106 | 15 | 237 | 0.0 | 8.0 | 0.00 | 0.64 | 0.00 | 72 | 1009.5 |
| 20260510054606 | 15 | 237 | 6.4 | 12.9 | 0.00 | 0.64 | 0.00 | 72 | 1009.5 |
| 20260510054106 | 15 | 239 | 0.0 | 14.5 | 0.00 | 0.64 | 0.00 | 71 | 1009.4 |
| 20260510053606 | 15 | 240 | 0.0 | 8.0 | 0.00 | 0.64 | 0.00 | 71 | 1009.4 |
| 20260510053106 | 15 | 240 | 3.2 | 6.4 | 0.00 | 0.64 | 0.00 | 70 | 1009.4 |
| 20260510052606 | 15 | 240 | 1.6 | 12.9 | 0.00 | 0.64 | 0.00 | 70 | 1009.4 |
| 20260510052106 | 16 | 241 | 4.8 | 9.7 | 0.00 | 0.64 | 0.00 | 70 | 1009.4 |
| 20260510051606 | 16 | 240 | 3.2 | 8.0 | 0.00 | 0.64 | 0.00 | 69 | 1009.2 |
| 20260510051109 | 16 | 240 | 4.8 | 16.1 | 0.00 | 0.64 | 0.00 | 69 | 1009.4 |
| 20260510050606 | 16 | 247 | 9.7 | 11.3 | 0.00 | 0.64 | 0.00 | 69 | 1009.4 |
| 20260510050106 | 16 | 250 | 3.2 | 11.3 | 0.00 | 0.64 | 0.00 | 69 | 1009.5 |
| 20260510045609 | 16 | 258 | 1.6 | 11.3 | 0.00 | 0.64 | 0.00 | 69 | 1009.3 |
| 20260510045106 | 16 | 242 | 0.0 | 8.0 | 0.00 | 0.64 | 0.00 | 68 | 1009.2 |
| 20260510044609 | 16 | 242 | 0.0 | 11.3 | 0.00 | 0.64 | 0.00 | 68 | 1009.1 |
| 20260510044106 | 16 | 227 | 1.6 | 9.7 | 0.00 | 0.64 | 0.00 | 67 | 1009.1 |
| 20260510043606 | 16 | 229 | 6.4 | 19.3 | 0.00 | 0.64 | 0.00 | 67 | 1009.0 |
| 20260510043106 | 16 | 232 | 16.1 | 17.7 | 0.00 | 0.64 | 0.00 | 67 | 1009.0 |
| 20260510042606 | 16 | 186 | 0.0 | 11.3 | 0.00 | 0.64 | 0.00 | 67 | 1009.0 |
| 20260510042109 | 16 | 241 | 9.7 | 14.5 | 0.00 | 0.64 | 0.00 | 66 | 1009.0 |
| 20260510041606 | 16 | 227 | 8.0 | 9.7 | 0.00 | 0.64 | 0.00 | 66 | 1008.9 |
| 20260510041106 | 16 | 219 | 0.0 | 20.9 | 0.00 | 0.64 | 0.00 | 66 | 1008.9 |
| 20260510040606 | 16 | 201 | 0.0 | 9.7 | 0.00 | 0.66 | 0.00 | 65 | 1008.9 |
| 20260510040106 | 16 | 240 | 4.8 | 8.0 | 0.00 | 0.66 | 0.00 | 64 | 1009.0 |
| 20260510035606 | 16 | 234 | 0.0 | 8.0 | 0.00 | 0.66 | 0.00 | 64 | 1008.9 |
| 20260510035109 | 16 | 233 | 0.0 | 4.8 | 0.00 | 0.66 | 0.00 | 64 | 1008.9 |
| 20260510034606 | 16 | 233 | 4.8 | 11.3 | 0.00 | 0.66 | 0.00 | 63 | 1008.9 |
| 20260510034106 | 16 | 233 | 3.2 | 11.3 | 0.00 | 0.66 | 0.00 | 63 | 1008.8 |
| 20260510033606 | 16 | 200 | 4.8 | 6.4 | 0.00 | 0.66 | 0.00 | 64 | 1008.7 |
| 20260510033106 | 16 | 199 | 0.0 | 3.2 | 0.00 | 0.66 | 0.00 | 63 | 1008.7 |
| 20260510032606 | 16 | 199 | 0.0 | 6.4 | 0.00 | 0.66 | 0.00 | 63 | 1008.7 |
| 20260510032106 | 16 | 198 | 0.0 | 4.8 | 0.00 | 0.66 | 0.00 | 63 | 1008.6 |
| 20260510031606 | 16 | 198 | 0.0 | 1.6 | 0.00 | 0.66 | 0.00 | 63 | 1008.6 |
| 20260510031106 | 16 | 198 | 0.0 | 1.6 | 0.00 | 0.66 | 0.00 | 63 | 1008.5 |
| 20260510030606 | 16 | 198 | 3.2 | 6.4 | 0.00 | 0.66 | 0.00 | 62 | 1008.5 |
| 20260510030106 | 16 | 198 | 0.0 | 4.8 | 0.00 | 0.66 | 0.00 | 62 | 1008.7 |
| 20260510025606 | 16 | 198 | 3.2 | 8.0 | 0.00 | 0.66 | 0.00 | 63 | 1008.7 |
| 20260510025109 | 16 | 202 | 0.0 | 8.0 | 0.00 | 0.66 | 0.00 | 63 | 1008.6 |
| 20260510024606 | 16 | 182 | 0.0 | 3.2 | 0.00 | 0.66 | 0.00 | 63 | 1008.7 |
| 20260510024106 | 16 | 182 | 0.0 | 0.0 | 0.00 | 0.66 | 0.00 | 63 | 1008.7 |
| 20260510023606 | 16 | 182 | 0.0 | 0.0 | 0.00 | 0.66 | 0.00 | 63 | 1008.6 |
| 20260510023106 | 16 | 182 | 0.0 | 1.6 | 0.00 | 0.66 | 0.00 | 63 | 1008.5 |
| 20260510022606 | 16 | 182 | 0.0 | 1.6 | 0.00 | 0.66 | 0.00 | 63 | 1008.5 |
| 20260510022109 | 16 | 182 | 0.0 | 0.0 | 0.00 | 0.66 | 0.00 | 62 | 1008.5 |
| 20260510021606 | 16 | 182 | 0.0 | 0.0 | 0.00 | 0.66 | 0.00 | 62 | 1008.4 |
| 20260510021107 | 16 | 182 | 0.0 | 0.0 | 0.00 | 0.66 | 0.00 | 61 | 1008.4 |
| 20260510020606 | 16 | 182 | 0.0 | 0.0 | 0.00 | 0.66 | 0.00 | 61 | 1008.3 |
| 20260510020106 | 16 | 182 | 0.0 | 0.0 | 0.00 | 0.66 | 0.00 | 60 | 1008.2 |
| 20260510015606 | 17 | 182 | 0.0 | 1.6 | 0.00 | 0.66 | 0.00 | 60 | 1008.0 |
| 20260510015106 | 17 | 182 | 0.0 | 1.6 | 0.00 | 0.66 | 0.00 | 60 | 1007.9 |
| 20260510014606 | 17 | 182 | 0.0 | 3.2 | 0.00 | 0.66 | 0.00 | 59 | 1007.8 |
| 20260510014106 | 17 | 182 | 0.0 | 9.7 | 0.00 | 0.66 | 0.00 | 59 | 1007.8 |
| 20260510013609 | 17 | 224 | 0.0 | 1.6 | 0.00 | 0.66 | 0.00 | 58 | 1007.8 |
| 20260510013106 | 17 | 224 | 0.0 | 3.2 | 0.00 | 0.66 | 0.00 | 58 | 1007.7 |
| 20260510012606 | 17 | 224 | 0.0 | 1.6 | 0.00 | 0.66 | 0.00 | 57 | 1007.6 |
| 20260510012109 | 17 | 224 | 0.0 | 4.8 | 0.00 | 0.66 | 0.00 | 57 | 1007.4 |
| 20260510011609 | 17 | 227 | 0.0 | 1.6 | 0.00 | 0.66 | 0.00 | 56 | 1007.3 |
| 20260510011106 | 18 | 227 | 0.0 | 4.8 | 0.00 | 0.66 | 0.00 | 56 | 1007.4 |
| 20260510010606 | 18 | 227 | 0.0 | 4.8 | 0.00 | 0.69 | 0.00 | 55 | 1007.3 |
| 20260510010106 | 18 | 227 | 0.0 | 1.6 | 0.00 | 0.69 | 0.00 | 55 | 1007.4 |
| 20260510005606 | 18 | 228 | 0.0 | 4.8 | 0.00 | 0.69 | 0.00 | 54 | 1007.4 |
| 20260510005109 | 18 | 228 | 0.0 | 8.0 | 0.00 | 0.69 | 0.00 | 54 | 1007.3 |
| 20260510004609 | 18 | 208 | 3.2 | 9.7 | 0.00 | 0.69 | 0.00 | 53 | 1007.2 |
| 20260510004106 | 18 | 218 | 0.0 | 6.4 | 0.00 | 0.69 | 0.00 | 53 | 1007.2 |
| 20260510003606 | 18 | 219 | 0.0 | 9.7 | 0.00 | 0.69 | 0.00 | 52 | 1007.0 |
| 20260510003106 | 19 | 203 | 0.0 | 14.5 | 0.00 | 0.69 | 0.00 | 51 | 1007.0 |
| 20260510002606 | 19 | 236 | 3.2 | 16.1 | 0.00 | 0.69 | 0.00 | 51 | 1006.9 |
| 20260510002106 | 19 | 213 | 0.0 | 11.3 | 0.00 | 0.69 | 0.00 | 51 | 1006.8 |
| 20260510001606 | 19 | 228 | 0.0 | 9.7 | 0.00 | 0.69 | 0.00 | 50 | 1006.8 |
| 20260510001106 | 20 | 242 | 0.0 | 14.5 | 0.00 | 0.69 | 0.00 | 50 | 1006.6 |
| 20260510000606 | 20 | 215 | 14.5 | 14.5 | 0.00 | 0.69 | 0.00 | 49 | 1006.6 |
| 20260510000107 | 20 | 234 | 0.0 | 17.7 | 0.00 | 0.69 | 0.00 | 48 | 1006.5 |
| 20260509235606 | 20 | 235 | 0.0 | 19.3 | 0.00 | 0.69 | 0.00 | 48 | 1006.5 |
| 20260509235106 | 20 | 227 | 11.3 | 19.3 | 0.00 | 0.69 | 0.00 | 47 | 1006.5 |
| 20260509234606 | 20 | 234 | 9.7 | 19.3 | 0.00 | 0.69 | 0.00 | 47 | 1006.4 |
| 20260509234106 | 20 | 270 | 12.9 | 27.4 | 0.00 | 0.69 | 0.00 | 47 | 1006.3 |
| 20260509233609 | 20 | 224 | 4.8 | 14.5 | 0.00 | 0.69 | 0.00 | 48 | 1006.4 |
| 20260509233106 | 20 | 248 | 1.6 | 20.9 | 0.00 | 0.69 | 0.00 | 48 | 1006.3 |
| 20260509232611 | 20 | 229 | 6.4 | 11.3 | 0.00 | 0.69 | 0.00 | 50 | 1006.3 |
| 20260509232111 | 20 | 225 | 1.6 | 19.3 | 0.00 | 0.69 | 0.00 | 48 | 1006.1 |
| 20260509231606 | 21 | 231 | 11.3 | 22.5 | 0.00 | 0.69 | 0.00 | 47 | 1006.1 |
| 20260509231106 | 21 | 244 | 4.8 | 20.9 | 0.00 | 0.69 | 0.00 | 48 | 1006.0 |
| 20260509230607 | 21 | 197 | 4.8 | 19.3 | 0.00 | 0.69 | 0.00 | 48 | 1006.0 |
| 20260509230106 | 21 | 204 | 4.8 | 19.3 | 0.00 | 0.69 | 0.00 | 48 | 1006.0 |
| 20260509225606 | 21 | 161 | 3.2 | 24.1 | 0.00 | 0.69 | 0.00 | 47 | 1006.0 |
| 20260509225106 | 21 | 169 | 11.3 | 20.9 | 0.00 | 0.69 | 0.00 | 47 | 1005.9 |
| 20260509224606 | 21 | 185 | 12.9 | 27.4 | 0.00 | 0.69 | 0.00 | 47 | 1005.9 |
| 20260509223606 | 21 | 236 | 8.0 | 20.9 | 0.00 | 0.69 | 0.00 | 48 | 1005.8 |
| 20260509223106 | 21 | 237 | 17.7 | 22.5 | 0.00 | 0.69 | 0.00 | 44 | 1005.8 |
| 20260509222606 | 21 | 176 | 16.1 | 25.7 | 0.00 | 0.69 | 0.00 | 47 | 1005.8 |
| 20260509222109 | 21 | 163 | 8.0 | 19.3 | 0.00 | 0.69 | 0.00 | 48 | 1005.7 |
| 20260509221606 | 21 | 232 | 0.0 | 20.9 | 0.00 | 0.69 | 0.00 | 48 | 1005.8 |
| 20260509221106 | 21 | 165 | 0.0 | 25.7 | 0.00 | 0.69 | 0.00 | 48 | 1005.8 |
| 20260509220611 | 21 | 223 | 11.3 | 25.7 | 0.00 | 0.69 | 0.00 | 49 | 1005.8 |
| 20260509220106 | 21 | 227 | 3.2 | 24.1 | 0.00 | 0.69 | 0.00 | 48 | 1005.9 |
| 20260509215607 | 21 | 302 | 9.7 | 20.9 | 0.00 | 0.69 | 0.00 | 48 | 1005.9 |
| 20260509215106 | 21 | 240 | 4.8 | 20.9 | 0.00 | 0.69 | 0.00 | 48 | 1006.0 |
| 20260509214611 | 21 | 240 | 11.3 | 20.9 | 0.00 | 0.69 | 0.00 | 48 | 1006.0 |
| 20260509214106 | 21 | 169 | 6.4 | 24.1 | 0.00 | 0.69 | 0.00 | 49 | 1006.1 |
| 20260509213606 | 21 | 167 | 19.3 | 24.1 | 0.00 | 0.69 | 0.00 | 51 | 1006.1 |
| 20260509213106 | 21 | 205 | 4.8 | 22.5 | 0.00 | 0.69 | 0.00 | 49 | 1006.0 |
| 20260509212614 | 21 | 177 | 8.0 | 25.7 | 0.00 | 0.69 | 0.00 | 49 | 1006.1 |
| 20260509212109 | 21 | 257 | 11.3 | 19.3 | 0.00 | 0.69 | 0.00 | 48 | 1006.1 |
| 20260509211606 | 21 | 220 | 8.0 | 24.1 | 0.00 | 0.69 | 0.00 | 47 | 1006.0 |
| 20260509211106 | 21 | 176 | 17.7 | 25.7 | 0.00 | 0.69 | 0.00 | 48 | 1006.0 |
| 20260509210606 | 20 | 138 | 4.8 | 24.1 | 0.00 | 0.69 | 0.00 | 48 | 1006.1 |
| 20260509210109 | 20 | 154 | 17.7 | 30.6 | 0.00 | 0.69 | 0.00 | 49 | 1006.1 |
| 20260509205606 | 20 | 186 | 19.3 | 29.0 | 0.00 | 0.69 | 0.00 | 50 | 1006.2 |
| 20260509205106 | 20 | 150 | 8.0 | 24.1 | 0.00 | 0.69 | 0.00 | 49 | 1006.2 |
| 20260509204606 | 20 | 214 | 3.2 | 20.9 | 0.00 | 0.69 | 0.00 | 52 | 1006.2 |
| 20260509204106 | 21 | 264 | 14.5 | 30.6 | 0.00 | 0.69 | 0.00 | 50 | 1006.1 |
| 20260509203606 | 21 | 222 | 9.7 | 22.5 | 0.00 | 0.69 | 0.00 | 50 | 1006.2 |
| 20260509203106 | 20 | 176 | 9.7 | 19.3 | 0.00 | 0.69 | 0.00 | 50 | 1006.2 |
| 20260509202607 | 20 | 153 | 19.3 | 25.7 | 0.00 | 0.69 | 0.00 | 50 | 1006.2 |
| 20260509202106 | 20 | 217 | 9.7 | 22.5 | 0.00 | 0.69 | 0.00 | 51 | 1006.2 |
| 20260509201609 | 20 | 213 | 11.3 | 22.5 | 0.00 | 0.69 | 0.00 | 51 | 1006.2 |
| 20260509201106 | 20 | 235 | 6.4 | 24.1 | 0.00 | 0.69 | 0.00 | 51 | 1006.5 |
| 20260509200611 | 20 | 175 | 11.3 | 17.7 | 0.00 | 0.69 | 0.00 | 51 | 1006.5 |
| 20260509200109 | 20 | 224 | 9.7 | 20.9 | 0.00 | 0.69 | 0.00 | 51 | 1006.5 |
| 20260509195609 | 20 | 225 | 8.0 | 32.2 | 0.00 | 0.69 | 0.00 | 51 | 1006.5 |
| 20260509195106 | 20 | 240 | 19.3 | 19.3 | 0.00 | 0.69 | 0.00 | 54 | 1006.6 |
| 20260509194606 | 20 | 207 | 16.1 | 16.1 | 0.00 | 0.69 | 0.00 | 54 | 1006.6 |
| 20260509194106 | 20 | 221 | 6.4 | 29.0 | 0.00 | 0.69 | 0.00 | 53 | 1006.6 |
| 20260509193606 | 20 | 182 | 1.6 | 24.1 | 0.00 | 0.69 | 0.00 | 53 | 1006.6 |
| 20260509193106 | 20 | 203 | 6.4 | 25.7 | 0.00 | 0.69 | 0.00 | 56 | 1006.7 |
| 20260509192606 | 20 | 198 | 9.7 | 22.5 | 0.00 | 0.69 | 0.00 | 56 | 1006.8 |
| 20260509192106 | 20 | 196 | 4.8 | 24.1 | 0.00 | 0.69 | 0.00 | 56 | 1006.9 |
| 20260509191606 | 19 | 148 | 6.4 | 24.1 | 0.00 | 0.69 | 0.00 | 57 | 1006.9 |
| 20260509191106 | 18 | 173 | 8.0 | 19.3 | 0.00 | 0.69 | 0.00 | 60 | 1006.9 |